This is the latest recevied weather packets stored in our database for station/object K5SVV. If no packets are shown the sender has not sent any weather packets the latest 10 day(s).
| Time | Temp. | Humidity | Pressure | Rain* | Wind** | Luminosity | Snow |
|---|---|---|---|---|---|---|---|
| 1787869567 | 36.67° C | 38% | 1012.3 hPa | 0 mm | - | 162 W/m² | - |
| 1787869262 | 36.67° C | 36% | 1012.1 hPa | 0 mm | - | 156 W/m² | - |
| 1787868961 | 36.67° C | 37% | 1012.2 hPa | 0 mm | - | 314 W/m² | - |
| 1787868655 | 36.67° C | 38% | 1012.3 hPa | 0 mm | - | 189 W/m² | - |
| 1787868353 | 36.67° C | 39% | 1012.3 hPa | 0 mm | - | 223 W/m² | - |
| 1787868049 | 37.22° C | 38% | 1012.3 hPa | 0 mm | - | 135 W/m² | - |
| 1787867744 | 37.78° C | 35% | 1012.3 hPa | 0 mm | - | 475 W/m² | - |
| 1787867439 | 37.22° C | 36% | 1012.6 hPa | 0 mm | - | 486 W/m² | - |
| 1787867135 | 37.22° C | 36% | 1012.5 hPa | 0 mm | - | 486 W/m² | - |
| 1787866830 | 36.67° C | 37% | 1012.4 hPa | 0 mm | - | 537 W/m² | - |
| 1787866524 | 36.67° C | 38% | 1012.6 hPa | 0 mm | - | 556 W/m² | - |
| 1787866223 | 38.33° C | 36% | 1012.8 hPa | 0 mm | - | 130 W/m² | - |
| 1787865918 | 38.33° C | 35% | 1012.6 hPa | 0 mm | - | 453 W/m² | - |
| 1787865613 | 38.33° C | 35% | 1012.9 hPa | 0 mm | - | 589 W/m² | - |
| 1787865311 | 37.78° C | 36% | 1012.9 hPa | 0 mm | - | 618 W/m² | - |
| 1787865004 | 37.78° C | 37% | 1012.9 hPa | 0 mm | - | 682 W/m² | - |
| 1787864699 | 37.78° C | 36% | 1013.2 hPa | 0 mm | - | 674 W/m² | - |
| 1787864398 | 37.22° C | 38% | 1013 hPa | 0 mm | - | 570 W/m² | - |
| 1787864092 | 37.22° C | 37% | 1013.1 hPa | 0 mm | - | 345 W/m² | - |
| 1787863791 | 36.67° C | 35% | 1013 hPa | 0 mm | - | 487 W/m² | - |
| 1787863490 | 37.22° C | 38% | 1012.9 hPa | 0 mm | - | 327 W/m² | - |
| 1787863192 | 37.22° C | 38% | 1013.1 hPa | 0 mm | - | 401 W/m² | - |
| 1787862882 | 37.22° C | 34% | 1013.1 hPa | 0 mm | - | 639 W/m² | - |
| 1787862581 | 37.22° C | 37% | 1013.4 hPa | 0 mm | - | 471 W/m² | - |
| 1787862277 | 36.67° C | 39% | 1013.1 hPa | 0 mm | - | 507 W/m² | - |
* Rain latest hour (hover to see other rain measurements)
** Current wind speed in m/s (hover to see current wind gust speed)